Wind_Speed
4 4 4 4 4 4 3 4 5 5 4 4 4 4 5 5 6 6 6 7 8 9 9 10 10 10 10 10 11 11 11 11 11 11 11 11 12 12 11 11 11 11 11
4 4 4 5 4 4 4 4 5 5 4 5 6 5 6 5 6 7 7 9 9 9 10 10 10 11 10 11 11 12 12 12 12 12 12 13 13 12 12 12 13 12 12
5 4 5 5 5 5 5 5 6 7 6 5 6 6 6 7 7 8 8 9 9 10 9 10 10 10 11 11 12 12 12 12 13 13 13 14 13 13 13 13 14 14 13
4 4 4 4 4 5 5 6 7 7 7 6 6 7 7 8 9 9 9 10 9 9 9 9 10 10 10 11 12 12 12 13 13 14 14 14 13 13 14 13 14 14 14
3 4 3 4 4 5 5 6 7 7 7 7 7 7 8 8 9 9 10 10 10 10 10 10 10 10 11 11 11 12 12 13 13 13 13 13 13 14 14 13 14 14 14
3 4 3 4 5 5 6 7 7 7 7 8 8 7 8 9 9 9 10 11 11 11 11 11 12 12 11 11 11 12 12 13 13 12 13 13 13 13 13 13 13 14 15
3 3 4 5 6 6 6 7 7 8 8 8 8 8 9 9 10 10 11 11 11 12 11 12 13 12 11 11 12 12 12 12 12 12 12 12 11 12 12 12 12 13 14
3 3 4 5 6 7 7 7 8 7 8 8 8 9 9 10 10 11 11 12 12 12 11 12 12 11 12 12 12 12 12 12 12 12 12 10 10 10 10 10 10 11 13
5 5 5 6 7 7 7 8 9 9 10 10 10 10 10 11 12 11 11 11 12 12 12 12 12 12 12 12 11 12 12 12 12 12 12 12 11 10 10 11 11 12 12
7 7 8 7 7 8 8 9 10 10 11 11 11 11 11 11 11 11 12 12 12 12 12 12 12 12 12 12 11 12 12 12 12 12 12 12 12 12 12 13 13 13 12
10 10 10 10 9 9 10 10 10 11 11 12 12 12 12 12 12 13 13 13 13 13 13 13 13 13 12 12 12 11 12 12 12 12 12 12 12 12 12 12 12 12 12
11 11 11 12 12 11 12 12 12 12 12 12 12 12 12 13 14 14 13 13 13 13 13 13 13 13 12 11 11 11 11 12 11 12 12 12 12 12 12 12 12 12 13
12 12 12 13 13 13 13 13 13 13 13 13 13 14 13 13 14 13 13 13 13 13 13 13 13 14 13 13 12 12 12 12 12 12 12 12 12 12 13 13 13 14 14
14 14 14 14 14 14 14 15 15 14 14 14 15 15 14 15 15 15 15 14 14 14 13 13 13 14 14 14 14 14 14 14 14 14 13 13 13 14 14 14 14 15 15
15 16 16 16 16 16 16 16 16 16 16 15 15 16 16 16 16 17 16 16 15 14 13 14 14 14 15 15 15 15 15 15 15 15 14 15 15 16 17 17 17 16 16
17 17 17 17 17 17 17 17 17 16 16 16 16 17 17 17 17 17 16 15 15 14 15 15 15 15 15 15 16 16 16 16 17 16 16 16 17 17 17 18 17 17 17
18 18 18 18 18 19 19 18 18 17 17 17 17 17 17 17 17 17 17 16 17 16 17 17 17 16 16 16 16 17 17 18 17 17 18 18 18 18 18 18 19 19 19
20 20 19 19 19 20 19 19 19 19 18 18 18 18 18 18 18 18 18 18 18 18 18 18 18 18 17 17 17 18 18 19 19 20 20 20 20 20 20 20 20 21 21
21 21 21 21 21 21 21 21 21 20 20 20 20 19 19 19 19 20 19 19 19 20 20 20 20 20 20 20 20 20 20 20 21 21 22 22 22 22 22 22 22 22 23
21 21 22 22 22 22 23 22 22 22 21 21 21 21 20 20 21 21 21 21 21 21 21 22 21 21 21 21 22 22 22 22 23 23 24 24 24 24 24 24 24 24 24
22 22 22 23 23 23 22 23 23 23 23 22 22 22 22 22 22 22 23 23 23 23 23 23 23 23 23 23 23 24 24 24 24 25 25 25 26 25 25 25 26 26 26
24 23 24 24 24 24 23 22 22 23 23 23 22 23 23 23 23 23 24 24 24 24 24 24 24 25 25 24 24 25 25 25 25 25 26 27 27 27 27 26 27 27 28
25 25 25 25 24 24 24 23 23 23 24 24 24 23 24 23 24 25 25 25 26 26 26 26 26 25 26 26 26 26 26 26 26 27 27 28 28 28 28 29 29 29 29
27 27 26 26 25 24 24 24 25 24 25 25 26 25 25 25 25 25 26 27 27 27 27 28 28 28 28 28 28 28 28 28 29 29 29 29 30 30 30 30 30 30 30
28 28 27 26 25 24 24 24 25 25 26 26 27 27 27 26 26 27 28 28 28 28 28 28 29 29 30 30 30 29 29 29 28 29 29 30 30 30 30 30 31 31 31
29 29 28 27 26 25 25 25 26 26 26 26 27 27 27 27 28 28 28 29 29 29 29 30 30 30 30 30 30 30 30 30 29 29 29 30 31 31 30 31 31 31 31
Wind_Direction
212 230 243 256 258 254 254 262 275 280 278 262 261 256 261 265 265 260 259 257 261 263 262 260 262 263 265 264 264 266 266 267 272 272 273 277 275 272 271 267 265 264 266
227 238 249 259 262 262 262 263 271 277 273 270 269 267 265 266 271 267 266 265 268 266 265 265 269 269 264 264 266 266 266 267 270 273 273 274 273 271 270 268 266 267 265
236 255 263 269 267 266 266 268 274 277 271 272 273 276 270 273 277 276 275 272 269 270 270 270 269 268 264 264 268 270 269 273 273 273 274 277 272 269 268 267 266 264 264
248 263 272 274 276 276 272 272 274 282 278 273 269 274 274 281 283 279 279 280 282 282 276 273 269 271 270 270 272 274 276 277 277 279 279 279 274 272 271 267 265 263 262
261 261 270 275 283 287 284 284 283 284 284 284 280 275 276 284 286 282 279 280 284 284 281 282 282 281 280 279 281 280 280 280 281 283 282 278 276 271 272 264 263 261 261
263 265 270 273 279 280 283 288 285 284 287 286 280 278 282 285 288 288 287 286 284 283 284 283 284 285 285 285 283 279 282 284 284 287 283 279 274 272 268 264 265 263 259
274 279 281 282 280 279 283 287 284 286 286 288 284 281 283 287 288 289 290 289 287 287 286 286 286 284 285 284 282 279 280 284 284 286 286 282 277 270 267 266 269 268 262
293 295 287 285 285 284 283 287 288 287 287 287 287 287 289 289 290 289 287 286 287 289 286 287 286 286 286 284 281 279 279 283 283 284 285 284 281 272 270 272 270 270 266
286 292 290 287 289 289 289 287 287 288 288 288 286 289 291 290 293 293 292 291 289 288 287 287 288 288 287 284 281 280 280 283 283 282 282 282 278 274 273 277 274 273 270
285 292 288 288 289 288 288 289 288 286 287 288 288 287 289 291 290 292 291 291 291 286 288 288 287 288 285 282 280 279 280 281 281 281 281 281 279 275 273 271 271 270 268
286 289 286 284 289 290 288 287 289 287 287 287 290 291 290 290 289 288 287 287 288 286 287 292 290 287 284 280 278 281 281 281 281 280 281 284 279 277 277 275 271 269 268
288 288 285 287 287 289 289 287 285 285 285 286 288 290 291 291 293 290 283 282 282 286 288 289 289 286 284 283 281 281 278 279 279 280 279 281 283 281 277 275 273 270 271
298 299 296 295 291 289 291 290 289 286 284 284 286 286 288 290 293 293 286 281 282 287 288 287 288 286 284 284 281 278 276 277 279 281 281 280 281 281 277 274 277 276 275
293 294 295 294 293 292 291 292 292 290 288 286 284 285 286 287 289 291 288 282 282 284 286 288 290 290 286 285 283 281 277 279 280 281 281 281 280 279 277 275 279 279 280
289 290 291 291 290 293 291 291 292 290 289 287 284 283 283 283 284 286 287 284 282 281 284 287 286 287 286 284 282 282 280 279 279 278 278 279 278 277 277 279 279 279 280
287 287 289 288 287 289 294 295 296 291 287 286 286 285 283 282 283 284 287 284 283 283 284 286 286 284 286 285 282 282 282 281 280 279 279 279 279 277 277 277 277 278 280
286 286 287 286 286 288 291 293 294 293 287 285 286 286 287 284 284 283 284 283 283 283 284 285 286 286 285 285 283 283 283 282 282 281 282 283 281 280 278 278 276 276 278
287 286 286 285 286 287 287 289 290 290 284 282 283 284 283 283 282 282 281 282 282 282 282 284 284 284 285 285 285 284 284 284 283 282 282 284 282 279 279 280 278 276 277
287 287 285 285 286 286 285 286 287 286 282 280 281 281 280 279 278 278 279 280 281 282 282 283 283 283 283 284 284 285 285 285 285 284 283 282 281 280 280 280 279 278 278
286 286 285 285 285 285 283 284 283 282 281 278 279 278 278 279 279 279 279 280 280 281 282 282 282 282 283 283 284 285 286 286 286 286 285 283 282 282 282 281 281 279 280
287 288 286 285 285 285 284 283 281 280 280 280 279 279 280 280 281 281 280 281 281 281 281 282 281 281 281 283 283 284 286 285 286 286 284 282 282 282 281 281 280 280 280
286 286 285 284 283 284 285 285 283 281 280 280 282 280 279 280 281 280 280 281 281 281 282 282 281 281 282 283 283 284 285 285 285 284 281 281 281 281 281 279 278 279 280
284 283 283 283 283 283 284 283 282 280 279 280 281 281 279 279 280 280 280 280 282 282 282 282 282 282 283 283 284 284 284 286 285 284 282 281 282 282 281 280 279 279 279
282 282 282 282 282 281 282 281 279 281 281 280 280 279 278 277 278 281 280 281 281 281 282 281 281 282 283 285 285 284 284 286 286 285 284 283 282 281 281 281 280 280 281
282 282 281 281 281 281 281 280 279 280 281 281 280 279 278 277 278 279 280 281 281 281 281 281 281 282 283 284 284 284 285 286 286 286 285 284 282 282 281 281 281 280 280
284 284 281 278 278 280 281 282 281 281 281 282 281 280 280 278 277 278 279 280 280 281 281 281 282 282 283 283 283 284 284 285 285 285 285 284 282 281 281 281 281 281 279
Height
5891 5891 5890 5890 5889 5889 5889 5889 5888 5887 5887 5886 5885 5885 5885 5884 5883 5882 5882 5882 5882 5882 5882 5882 5882 5882 5882 5882 5881 5881 5881 5880 5880 5880 5879 5879 5878 5877 5878 5878 5878 5878 5878
5891 5890 5890 5890 5889 5889 5888 5888 5887 5887 5886 5885 5884 5884 5884 5883 5883 5882 5882 5881 5881 5881 5881 5881 5880 5880 5880 5879 5879 5878 5878 5877 5877 5876 5876 5875 5875 5875 5875 5875 5875 5875 5875
5891 5890 5890 5889 5889 5888 5888 5887 5887 5886 5885 5884 5884 5884 5883 5883 5882 5881 5880 5880 5879 5879 5879 5878 5878 5878 5877 5877 5876 5876 5875 5874 5874 5873 5872 5872 5871 5871 5871 5871 5872 5872 5872
5890 5889 5889 5889 5888 5888 5887 5887 5886 5886 5885 5884 5883 5883 5882 5882 5881 5880 5879 5878 5878 5877 5877 5876 5876 5875 5875 5874 5874 5873 5872 5871 5871 5870 5869 5868 5867 5867 5867 5867 5868 5869 5869
5889 5889 5888 5888 5887 5887 5886 5886 5885 5885 5884 5883 5882 5882 5881 5880 5880 5879 5878 5877 5876 5875 5875 5874 5874 5873 5872 5872 5871 5870 5869 5869 5868 5867 5866 5864 5863 5862 5863 5863 5864 5865 5866
5888 5888 5887 5887 5886 5886 5885 5884 5884 5883 5882 5882 5881 5880 5880 5879 5878 5877 5876 5875 5874 5873 5873 5872 5871 5871 5870 5869 5868 5867 5867 5866 5865 5863 5862 5860 5858 5857 5858 5859 5861 5861 5862
5888 5887 5887 5886 5886 5885 5884 5883 5883 5882 5881 5880 5880 5879 5878 5877 5876 5875 5874 5873 5872 5871 5870 5869 5868 5868 5867 5866 5865 5865 5864 5863 5862 5861 5859 5857 5855 5854 5855 5856 5858 5858 5859
5887 5886 5886 5885 5884 5884 5883 5882 5881 5880 5880 5879 5878 5877 5877 5876 5874 5873 5872 5871 5870 5868 5867 5866 5865 5865 5864 5863 5862 5862 5861 5860 5859 5858 5856 5855 5853 5853 5853 5854 5855 5856 5856
5886 5885 5885 5884 5883 5882 5881 5881 5880 5879 5878 5877 5876 5875 5874 5873 5872 5871 5869 5868 5867 5866 5865 5863 5863 5862 5861 5860 5859 5859 5858 5857 5856 5855 5854 5853 5852 5852 5852 5852 5853 5853 5853
5884 5884 5883 5882 5881 5880 5880 5879 5878 5877 5876 5875 5874 5873 5872 5871 5870 5868 5867 5866 5864 5863 5862 5861 5860 5859 5858 5857 5856 5856 5855 5854 5853 5853 5852 5851 5851 5850 5850 5850 5850 5850 5850
5883 5882 5881 5881 5880 5878 5877 5876 5875 5874 5873 5872 5871 5870 5869 5868 5867 5866 5865 5863 5862 5861 5860 5858 5857 5856 5855 5854 5854 5853 5852 5852 5851 5850 5849 5849 5848 5848 5847 5847 5847 5847 5847
5880 5879 5878 5878 5877 5876 5875 5874 5873 5871 5870 5869 5869 5868 5866 5865 5864 5862 5861 5860 5859 5858 5857 5856 5854 5853 5852 5851 5851 5850 5849 5849 5848 5848 5847 5846 5845 5845 5845 5844 5844 5844 5843
5878 5877 5876 5875 5874 5873 5872 5871 5870 5868 5867 5866 5865 5864 5863 5862 5861 5860 5858 5857 5856 5855 5854 5853 5851 5850 5849 5848 5848 5847 5846 5846 5845 5845 5844 5843 5842 5842 5841 5841 5840 5840 5840
5875 5874 5873 5872 5871 5870 5869 5867 5866 5865 5864 5863 5862 5861 5860 5859 5857 5856 5855 5854 5853 5852 5851 5849 5848 5847 5846 5845 5844 5844 5843 5842 5842 5841 5841 5840 5839 5839 5838 5837 5837 5836 5836
5872 5871 5870 5868 5867 5866 5865 5864 5863 5862 5860 5859 5858 5857 5856 5855 5854 5853 5851 5850 5849 5848 5848 5846 5845 5844 5842 5841 5840 5840 5839 5838 5838 5837 5836 5836 5835 5835 5834 5833 5832 5831 5831
5869 5867 5866 5864 5864 5863 5861 5859 5858 5857 5856 5855 5854 5853 5851 5850 5850 5849 5847 5846 5845 5845 5844 5843 5841 5840 5838 5837 5836 5835 5835 5834 5833 5833 5832 5831 5831 5830 5829 5828 5827 5826 5825
5864 5863 5861 5860 5859 5858 5857 5856 5854 5853 5852 5851 5849 5848 5847 5846 5845 5844 5843 5842 5841 5840 5839 5838 5837 5835 5834 5833 5832 5831 5830 5829 5829 5828 5827 5827 5826 5825 5824 5823 5822 5821 5820
5859 5858 5856 5855 5854 5853 5852 5851 5849 5848 5847 5846 5845 5844 5842 5841 5841 5840 5839 5838 5837 5835 5834 5833 5832 5831 5830 5829 5827 5826 5825 5824 5823 5823 5822 5821 5820 5819 5818 5817 5816 5816 5815
5854 5853 5851 5850 5849 5847 5846 5845 5844 5842 5841 5840 5839 5838 5837 5836 5835 5834 5833 5832 5831 5830 5829 5828 5827 5826 5825 5824 5822 5821 5820 5818 5817 5816 5816 5815 5814 5813 5813 5812 5811 5810 5809
5849 5847 5846 5844 5843 5841 5840 5839 5837 5836 5835 5834 5833 5832 5831 5830 5830 5829 5828 5827 5826 5825 5824 5822 5821 5820 5819 5818 5817 5816 5814 5813 5811 5810 5809 5808 5807 5807 5806 5805 5804 5803 5802
5843 5841 5839 5838 5836 5835 5833 5832 5831 5829 5829 5828 5827 5826 5825 5824 5823 5823 5822 5821 5820 5819 5817 5816 5815 5814 5813 5812 5811 5809 5808 5806 5805 5803 5802 5801 5800 5799 5798 5798 5797 5796 5795
5836 5835 5833 5831 5830 5828 5827 5825 5824 5823 5822 5821 5821 5820 5819 5818 5817 5816 5815 5815 5813 5812 5811 5810 5809 5807 5806 5805 5803 5802 5801 5800 5798 5797 5795 5794 5793 5792 5791 5790 5789 5788 5787
5830 5828 5826 5824 5823 5821 5820 5818 5817 5816 5815 5814 5814 5813 5812 5811 5810 5809 5808 5808 5807 5805 5804 5803 5802 5800 5799 5798 5796 5795 5793 5792 5791 5789 5788 5787 5785 5784 5783 5781 5781 5780 5779
5823 5821 5818 5817 5815 5814 5813 5811 5810 5809 5808 5807 5806 5805 5805 5804 5802 5801 5801 5800 5799 5798 5797 5796 5794 5793 5791 5790 5789 5787 5786 5784 5783 5781 5780 5779 5777 5776 5774 5773 5772 5771 5770
5815 5813 5811 5809 5807 5806 5805 5804 5803 5801 5800 5799 5798 5798 5797 5796 5796 5794 5793 5792 5791 5790 5789 5787 5786 5785 5783 5782 5780 5779 5777 5776 5774 5773 5771 5770 5768 5767 5766 5764 5763 5762 5761
5806 5805 5803 5801 5800 5799 5798 5796 5795 5794 5793 5792 5790 5790 5789 5788 5787 5786 5785 5784 5783 5782 5780 5779 5778 5776 5775 5773 5771 5770 5768 5767 5766 5764 5763 5761 5759 5758 5757 5755 5754 5753 5752